Weather History for Mineral Wells, TX

Change the Weather History Date:

Tuesday, September 3, 2013

  Actual Average Record
Temperature  
Mean Temperature 85 °F -  
Max Temperature 99 °F 90 °F 109 °F (2000)
Min Temperature 72 °F 68 °F 62 °F (2003)
Cooling Degree Days 20    
Growing Degree Days 35 (Base 50)    
Moisture  
Dew Point 62 °F    
Average Humidity 53    
Maximum Humidity 93    
Minimum Humidity 20    
Precipitation  
Precipitation 0.00 in - - ()
Sea Level Pressure  
Sea Level Pressure 29.93 in    
Wind  
Wind Speed 4 mph (NNE)    
Max Wind Speed 10 mph    
Max Gust Speed 16 mph    
Visibility 10 miles    
Events      
Averages and records for this station are not official NWS values.
T = Trace of Precipitation, MM = Missing Value Source: NWS Daily Summary

Daily Weather History Graph

Daily Weather History Graph

Search for Another Location

Airport:

Trip Planner

Search our weather history database for the weather conditions in past years. The results will help you decide how hot, cold, wet, or windy it might be!

Date:

Astronomy

Sep. 03, 2013 Rise Set
Actual Time 7:08 AM CDT 7:54 PM CDT
Civil Twilight 6:43 AM CDT 8:19 PM CDT
Nautical Twilight 6:13 AM CDT 8:48 PM CDT
Astronomical Twilight 5:43 AM CDT 9:18 PM CDT
Moon 5:26 AM CDT (9/3) 6:41 PM CDT (9/3)
Length of Visible Light 13h 35m
Length of Day
12h 45m
Waning Crescent, 3% of the Moon is Illuminated
Sep 3
Waning Crescent
Sep 5
New
Sep 12
First Quarter
Sep 19
Full
Sep 26
Last Quarter

Hourly Weather History & Observations

Time (CDT) Temp. Heat Index Dew Point Humidity Pressure Visibility Wind Dir Wind Speed Gust Speed Precip Events Conditions
12:53 AM 77.0 °F - 72.0 °F 84% 29.92 in 10.0 mi NNE 3.5 mph - N/A   Mostly Cloudy
1:53 AM 77.0 °F - 70.0 °F 79% 29.93 in 10.0 mi North 3.5 mph - N/A   Partly Cloudy
2:53 AM 72.0 °F - 70.0 °F 93% 29.92 in 10.0 mi NNE 3.5 mph - N/A   Scattered Clouds
3:53 AM 75.0 °F - 70.0 °F 84% 29.92 in 10.0 mi Calm Calm - N/A   Clear
4:53 AM 75.0 °F - 69.1 °F 82% 29.93 in 10.0 mi Calm Calm - N/A   Scattered Clouds
5:53 AM 73.9 °F - 69.1 °F 85% 29.94 in 10.0 mi North 3.5 mph - N/A   Clear
6:53 AM 73.0 °F - 66.9 °F 81% 29.95 in 10.0 mi Calm Calm - N/A   Clear
7:53 AM 73.0 °F - 66.9 °F 81% 29.96 in 10.0 mi Calm Calm - N/A   Clear
8:53 AM 79.0 °F - 64.9 °F 62% 29.97 in 10.0 mi Calm Calm - N/A   Clear
9:53 AM 82.9 °F 84.4 °F 64.0 °F 53% 29.99 in 10.0 mi NE 4.6 mph - N/A   Clear
10:53 AM 87.1 °F 88.3 °F 64.0 °F 46% 29.99 in 10.0 mi NNE 6.9 mph - N/A   Clear
11:53 AM 90.0 °F 90.6 °F 63.0 °F 40% 29.98 in 10.0 mi North 6.9 mph - N/A   Clear
12:53 PM 91.9 °F 92.9 °F 63.0 °F 38% 29.96 in 10.0 mi Variable 3.5 mph - N/A   Clear
1:53 PM 93.9 °F 94.8 °F 62.1 °F 35% 29.94 in 10.0 mi Variable 5.8 mph - N/A   Clear
2:53 PM 97.0 °F 97.4 °F 61.0 °F 30% 29.91 in 10.0 mi NNE 10.4 mph 16.1 mph N/A   Clear
3:53 PM 98.1 °F 96.8 °F 57.0 °F 25% 29.89 in 10.0 mi NNW 10.4 mph - N/A   Clear
4:53 PM 98.1 °F 96.4 °F 55.9 °F 24% 29.87 in 10.0 mi North 6.9 mph - N/A   Clear
5:53 PM 98.1 °F - 50.0 °F 20% 29.86 in 10.0 mi North 6.9 mph - N/A   Clear
6:53 PM 96.1 °F - 50.0 °F 21% 29.86 in 10.0 mi North 5.8 mph - N/A   Clear
7:53 PM 90.0 °F - 51.1 °F 26% 29.87 in 10.0 mi ENE 4.6 mph - N/A   Clear
8:53 PM 84.9 °F 83.6 °F 55.0 °F 36% 29.89 in 10.0 mi ENE 4.6 mph - N/A   Clear
9:53 PM 78.1 °F - 57.0 °F 48% 29.91 in 10.0 mi Calm Calm - N/A   Clear
10:53 PM 77.0 °F - 55.9 °F 48% 29.92 in 10.0 mi Calm Calm - N/A   Clear
11:53 PM 73.9 °F - 57.0 °F 55% 29.93 in 10.0 mi North 3.5 mph - N/A   Clear